Location: ??????????
(48.4699°N, 37.9573°E)
Time: 12:42:36
(UTC+00:00)

Cosmos 2263 Rocket - Pass Details

Date: 20 January 2021
Orbit: 825 x 847 km, 71.0° (Epoch: 26 February)

Event Time Altitude Azimuth Distance (km) Brightness Sun altitude
Rises 15:32:58 0° 222° (SW) 3,398 6.4 -13.8°
Reaches altitude 10° 15:35:29 10° 228° (SW) 2,465 5.6 -14.2°
Maximum altitude 15:41:00 52° 304° (NW) 1,046 2.9 -15.1°
Drops below altitude 10° 15:46:32 10° 21° (NNE) 2,469 4.3 -16.0°
Enters shadow 15:47:21 - 23° (NNE) 2,769 4.6 -16.1°
